User: anonymous   Login
Location: Unspecified
(0.0000°N, 0.0000°E)
Time: 21:12:57
(UTC+00:00)
Language:

RASAT - Orbit

View from above orbital plane
View from above orbital plane
View from above satellite
View from above satellite

Ground track
Ground track

The orbit data is extracted from the following two-line orbital elements,

1 37791U 11044D   24108.51611292  .00002053  00000-0  38073-3 0  9993
2 37791  98.0749 200.9632 0021678 172.3939 245.0834 14.66177743677255
Epoch (UTC): 17 April 2024 12:23:12
Eccentricity: 0.0021678
inclination: 98.0749°
perigee height: 658 km
apogee height: 688 km
right ascension of ascending node: 200.9632°
argument of perigee: 172.3939°
revolutions per day: 14.66177743
mean anomaly at epoch: 245.0834°
orbit number at epoch: 67725

The dashed part of the orbit path shows where the satellite is in the earth's shadow,  

DLR